When you browse on this site, cookies collect data to enhance your experience and personalize the content and advertising you see.
Visit our Privacy Policy to learn more. By continuing to use the site, you agree to this use of cookies and data.

Hourly Weather Sydney

Today, 9 July, Thursday

Time Temperature Precipitation Wind Pressure Humidity
00:00 +10°C° 0 mm 2 mps 771 mmHg 87%
01:00 +10°C° 0 mm 2 mps 771 mmHg 88%
02:00 +9°C° 0 mm 2 mps 771 mmHg 89%
03:00 +9°C° 0 mm 2 mps 771 mmHg 90%
04:00 +9°C° 0 mm 2 mps 771 mmHg 90%
05:00 +9°C° 0 mm 2 mps 771 mmHg 90%
06:00 +9°C° 0 mm 2 mps 771 mmHg 90%
07:00 +9°C° 0 mm 2 mps 772 mmHg 90%
08:00 +10°C° 0 mm 2 mps 772 mmHg 82%
09:00 +13°C° 0 mm 2 mps 772 mmHg 74%
10:00 +16°C° 0 mm 1 mps 772 mmHg 67%
11:00 +16°C° 0 mm 1 mps 771 mmHg 64%
12:00 +18°C° 0 mm 1 mps 770 mmHg 62%
13:00 +19°C° 0 mm 1 mps 770 mmHg 60%
14:00 +19°C° 0 mm 1 mps 769 mmHg 61%
15:00 +18°C° 0 mm 2 mps 769 mmHg 62%
16:00 +18°C° 0 mm 2 mps 769 mmHg 63%
17:00 +16°C° 0 mm 2 mps 770 mmHg 71%
18:00 +15°C° 0 mm 2 mps 770 mmHg 78%
19:00 +13°C° 0 mm 3 mps 770 mmHg 86%
20:00 +13°C° 0.1 mm 3 mps 770 mmHg 87%
21:00 +12°C° 0.1 mm 3 mps 770 mmHg 89%
22:00 +12°C° 0.1 mm 3 mps 770 mmHg 91%
23:00 +12°C° 0.1 mm 3 mps 770 mmHg 91%

Tomorrow, 10 July, Friday

Time Temperature Precipitation Wind Pressure Humidity
00:00 +12°C° 0.1 mm 2 mps 770 mmHg 91%
01:00 +12°C° 0.1 mm 2 mps 770 mmHg 91%
02:00 +12°C° 0 mm 2 mps 769 mmHg 91%
03:00 +12°C° 0 mm 2 mps 769 mmHg 91%
04:00 +12°C° 0 mm 2 mps 769 mmHg 90%
05:00 +12°C° 0 mm 2 mps 769 mmHg 89%
06:00 +10°C° 0 mm 2 mps 769 mmHg 87%
07:00 +10°C° 0 mm 2 mps 769 mmHg 85%
08:00 +13°C° 0 mm 2 mps 769 mmHg 78%
09:00 +14°C° 0 mm 2 mps 769 mmHg 71%
10:00 +14°C° 0 mm 3 mps 769 mmHg 63%
11:00 +17°C° 0 mm 2 mps 768 mmHg 57%
12:00 +19°C° 0 mm 2 mps 767 mmHg 51%
13:00 +21°C° 0 mm 2 mps 767 mmHg 44%
14:00 +20°C° 0 mm 2 mps 766 mmHg 46%
15:00 +20°C° 0 mm 3 mps 766 mmHg 48%
16:00 +20°C° 0 mm 3 mps 765 mmHg 51%
17:00 +19°C° 0.1 mm 3 mps 766 mmHg 58%
18:00 +17°C° 0.1 mm 3 mps 766 mmHg 66%
19:00 +15°C° 0.1 mm 4 mps 766 mmHg 74%
20:00 +15°C° 0.1 mm 4 mps 766 mmHg 77%
21:00 +15°C° 0.1 mm 4 mps 766 mmHg 81%
22:00 +14°C° 0.1 mm 4 mps 766 mmHg 84%
23:00 +14°C° 0.2 mm 3 mps 765 mmHg 85%

Day after tomorrow, 11 July, Saturday

Time Temperature Precipitation Wind Pressure Humidity
00:00 +14°C° 0.2 mm 3 mps 765 mmHg 87%
01:00 +15°C° 0.2 mm 2 mps 764 mmHg 88%
02:00 +14°C° 0 mm 3 mps 764 mmHg 88%
03:00 +14°C° 0 mm 4 mps 763 mmHg 87%
04:00 +14°C° 0 mm 5 mps 762 mmHg 86%
05:00 +13°C° 0 mm 5 mps 762 mmHg 86%
06:00 +13°C° 0 mm 5 mps 762 mmHg 87%
07:00 +13°C° 0 mm 5 mps 763 mmHg 88%
08:00 +14°C° 0.1 mm 5 mps 762 mmHg 82%
09:00 +16°C° 0.1 mm 5 mps 762 mmHg 76%
10:00 +17°C° 0.1 mm 5 mps 762 mmHg 71%
11:00 +19°C° 0 mm 4 mps 762 mmHg 62%
12:00 +21°C° 0 mm 3 mps 761 mmHg 53%
13:00 +22°C° 0 mm 3 mps 761 mmHg 44%
14:00 +23°C° 0 mm 2 mps 760 mmHg 44%
15:00 +23°C° 0 mm 2 mps 760 mmHg 45%
16:00 +21°C° 0 mm 2 mps 760 mmHg 45%
17:00 +20°C° 0.1 mm 2 mps 761 mmHg 53%
18:00 +18°C° 0.1 mm 2 mps 761 mmHg 61%
19:00 +16°C° 0.1 mm 2 mps 761 mmHg 69%
20:00 +15°C° 0 mm 2 mps 761 mmHg 71%
21:00 +15°C° 0 mm 2 mps 761 mmHg 74%
22:00 +14°C° 0 mm 2 mps 762 mmHg 76%
23:00 +14°C° 0 mm 2 mps 761 mmHg 78%

12 July, Sunday

Time Temperature Precipitation Wind Pressure Humidity
00:00 +13°C° 0 mm 2 mps 761 mmHg 80%
01:00 +13°C° 0 mm 2 mps 761 mmHg 82%
02:00 +12°C° 0 mm 2 mps 761 mmHg 83%
03:00 +12°C° 0 mm 2 mps 761 mmHg 84%
04:00 +12°C° 0 mm 1 mps 761 mmHg 85%
05:00 +10°C° 0 mm 2 mps 761 mmHg 85%
06:00 +10°C° 0 mm 2 mps 761 mmHg 86%
07:00 +10°C° 0 mm 2 mps 762 mmHg 86%
08:00 +13°C° 0 mm 2 mps 762 mmHg 79%
09:00 +14°C° 0 mm 2 mps 762 mmHg 72%
10:00 +16°C° 0 mm 2 mps 762 mmHg 65%
11:00 +17°C° 0 mm 2 mps 761 mmHg 61%
12:00 +19°C° 0 mm 1 mps 760 mmHg 57%
13:00 +21°C° 0 mm 1 mps 760 mmHg 53%
14:00 +20°C° 0.2 mm 1 mps 760 mmHg 59%
15:00 +18°C° 0.2 mm 2 mps 760 mmHg 64%
16:00 +17°C° 0.2 mm 2 mps 759 mmHg 70%
17:00 +16°C° 1.4 mm 2 mps 760 mmHg 76%
18:00 +15°C° 1.4 mm 2 mps 760 mmHg 83%
19:00 +14°C° 1.4 mm 2 mps 761 mmHg 89%
20:00 +14°C° 1.1 mm 2 mps 761 mmHg 90%
21:00 +13°C° 1.1 mm 2 mps 761 mmHg 91%
22:00 +13°C° 1.1 mm 2 mps 761 mmHg 92%
23:00 +12°C° 0.3 mm 2 mps 761 mmHg 92%

13 July, Monday

Time Temperature Precipitation Wind Pressure Humidity
00:00 +12°C° 0.3 mm 2 mps 761 mmHg 92%
01:00 +10°C° 0.3 mm 3 mps 760 mmHg 93%
02:00 +10°C° 0.1 mm 3 mps 760 mmHg 92%
03:00 +10°C° 0.1 mm 3 mps 760 mmHg 92%
04:00 +9°C° 0.1 mm 3 mps 760 mmHg 91%
05:00 +9°C° 0 mm 3 mps 760 mmHg 90%
06:00 +9°C° 0 mm 3 mps 761 mmHg 88%
07:00 +7°C° 0 mm 4 mps 761 mmHg 86%
08:00 +8°C° 0 mm 4 mps 761 mmHg 81%
09:00 +10°C° 0 mm 4 mps 761 mmHg 76%
10:00 +12°C° 0 mm 4 mps 761 mmHg 71%
11:00 +13°C° 0.1 mm 4 mps 760 mmHg 67%
12:00 +14°C° 0.1 mm 4 mps 759 mmHg 64%
13:00 +17°C° 0.1 mm 4 mps 759 mmHg 60%
14:00 +15°C° 0.6 mm 5 mps 759 mmHg 64%
15:00 +15°C° 0.6 mm 5 mps 758 mmHg 68%
16:00 +15°C° 0.6 mm 5 mps 758 mmHg 72%
17:00 +14°C° 1.1 mm 6 mps 758 mmHg 77%
18:00 +12°C° 1.1 mm 7 mps 759 mmHg 82%
19:00 +11°C° 1.1 mm 8 mps 759 mmHg 87%
20:00 +12°C° 5 mm 9 mps 759 mmHg 87%
21:00 +12°C° 5 mm 10 mps 758 mmHg 87%
22:00 +13°C° 5 mm 12 mps 758 mmHg 87%
23:00 +13°C° 0.7 mm 12 mps 758 mmHg 85%

14 July, Tuesday

Time Temperature Precipitation Wind Pressure Humidity
00:00 +13°C° 0.7 mm 12 mps 758 mmHg 83%
01:00 +13°C° 0.7 mm 13 mps 758 mmHg 81%
02:00 +13°C° 0.5 mm 13 mps 759 mmHg 79%
03:00 +13°C° 0.5 mm 14 mps 759 mmHg 77%
04:00 +12°C° 0.5 mm 14 mps 759 mmHg 75%
05:00 +12°C° 0.1 mm 14 mps 760 mmHg 74%
06:00 +12°C° 0.1 mm 14 mps 761 mmHg 73%
07:00 +12°C° 0.1 mm 14 mps 761 mmHg 72%
08:00 +12°C° 0.1 mm 14 mps 762 mmHg 71%
09:00 +12°C° 0.1 mm 14 mps 762 mmHg 69%
10:00 +13°C° 0.1 mm 14 mps 762 mmHg 68%
11:00 +13°C° 0.3 mm 14 mps 762 mmHg 65%
12:00 +13°C° 0.3 mm 14 mps 761 mmHg 62%
13:00 +13°C° 0.3 mm 14 mps 761 mmHg 59%
14:00 +13°C° 0.2 mm 13 mps 761 mmHg 62%
15:00 +13°C° 0.2 mm 13 mps 761 mmHg 64%
16:00 +13°C° 0.2 mm 13 mps 761 mmHg 67%
17:00 +12°C° 0.1 mm 13 mps 762 mmHg 66%
18:00 +12°C° 0.1 mm 13 mps 762 mmHg 66%
19:00 +12°C° 0.1 mm 13 mps 763 mmHg 66%
20:00 +12°C° 0.2 mm 13 mps 763 mmHg 67%
21:00 +12°C° 0.2 mm 13 mps 763 mmHg 68%
22:00 +12°C° 0.2 mm 13 mps 763 mmHg 69%
23:00 +12°C° 0.1 mm 13 mps 763 mmHg 69%
Show more